FBU70A LFPO-FMEE

Flight info

Callsign FBU70A
Flight time N/A
Altitude 39000
Route OKASI DCT OKEKO DCT MOU/N0481F350 DCT MADIV DCT MOKIP/N0481F330 DCT TUFTA DCT GEVEA/N0481F340 DCT ORSUD DCT BIBAN/N0481F350 DCT EKPAL/N0481F370 DCT RUTOM DCT SALUN/N0481F390 N705 BOPIX N710 TAKRI P751 LXR M999 JDW G650 ULONI UV790 SB UR775 MOGDU UN304 UVENA
Aircraft A35K/H-SDE2E3GHIJ3J4J5LM1ORWXY/LB1D1

Departure

Time 2026-05-01 07:55
Airport Paris-Orly Airport (LFPO)

Arrival

Time N/A
Airport Roland Garros Airport (FMEE)
Time Latitude Longitude Altitude Speed Heading
2026-05-01 07:28 48.72621 2.36395 300 ft 0 kts 332°
2026-05-01 07:44 48.72616 2.36399 300 ft 2 kts 332°
2026-05-01 07:45 48.72602 2.36411 300 ft 2 kts 331°
2026-05-01 07:45 48.72587 2.36423 300 ft 2 kts 330°
2026-05-01 07:45 48.72573 2.36436 300 ft 2 kts 326°
2026-05-01 07:45 48.72560 2.36451 303 ft 2 kts 304°
2026-05-01 07:46 48.72557 2.36472 301 ft 1 kts 257°
2026-05-01 07:46 48.72557 2.36477 301 ft 0 kts 255°
2026-05-01 07:48 48.72553 2.36448 302 ft 3 kts 257°
2026-05-01 07:48 48.72545 2.36404 301 ft 5 kts 253°
2026-05-01 07:48 48.72527 2.36318 304 ft 8 kts 253°
2026-05-01 07:49 48.72496 2.36253 304 ft 8 kts 203°
2026-05-01 07:49 48.72396 2.36084 303 ft 7 kts 254°
2026-05-01 07:49 48.72381 2.36004 304 ft 9 kts 254°
2026-05-01 07:50 48.72363 2.35907 302 ft 10 kts 254°
2026-05-01 07:50 48.72254 2.35608 303 ft 18 kts 193°
2026-05-01 07:50 48.72152 2.35631 300 ft 12 kts 165°
2026-05-01 07:51 48.72072 2.35685 304 ft 13 kts 143°
2026-05-01 07:51 48.72044 2.35731 303 ft 0 kts 128°
2026-05-01 07:53 48.72043 2.35733 303 ft 1 kts 128°
2026-05-01 07:53 48.72025 2.35771 303 ft 6 kts 123°
2026-05-01 07:53 48.71988 2.35860 303 ft 12 kts 121°
2026-05-01 07:53 48.71963 2.35979 299 ft 12 kts 88°
2026-05-01 07:54 48.72019 2.36294 305 ft 65 kts 74°
2026-05-01 07:55 48.72850 2.40755 1179 ft 177 kts 75°
2026-05-01 07:55 48.73614 2.44567 2154 ft 200 kts 76°
2026-05-01 07:56 48.74511 2.51219 3417 ft 229 kts 91°
2026-05-01 07:56 48.74359 2.56327 4181 ft 249 kts 104°
2026-05-01 07:57 48.73569 2.58648 4622 ft 254 kts 137°
2026-05-01 07:57 48.70243 2.59849 5691 ft 262 kts 198°
2026-05-01 07:58 48.67947 2.55765 6866 ft 274 kts 257°
2026-05-01 07:58 48.67407 2.49998 8120 ft 280 kts 261°
2026-05-01 07:59 48.66213 2.44455 9400 ft 280 kts 232°
2026-05-01 07:59 48.62912 2.41675 10502 ft 286 kts 181°
2026-05-01 08:00 48.55426 2.47503 11573 ft 345 kts 128°
2026-05-01 08:01 48.49244 2.53762 12432 ft 375 kts 157°
2026-05-01 08:01 48.46816 2.55255 12948 ft 379 kts 158°
2026-05-01 08:01 48.44353 2.56696 13488 ft 381 kts 158°
2026-05-01 08:02 48.40192 2.59146 14344 ft 386 kts 158°
2026-05-01 08:02 48.36878 2.61154 14931 ft 389 kts 157°
2026-05-01 08:03 48.32670 2.63761 15789 ft 391 kts 157°
2026-05-01 08:03 48.30184 2.65314 16288 ft 393 kts 157°
2026-05-01 08:03 48.25111 2.68481 17268 ft 397 kts 157°
2026-05-01 08:04 48.19992 2.71667 18234 ft 400 kts 157°
2026-05-01 08:04 48.14823 2.74874 19076 ft 404 kts 157°
2026-05-01 08:05 48.09591 2.78113 19828 ft 410 kts 157°
2026-05-01 08:05 48.06946 2.79746 20220 ft 412 kts 157°
2026-05-01 08:05 48.04291 2.81384 20611 ft 414 kts 157°
2026-05-01 08:06 47.98928 2.84687 21393 ft 419 kts 157°
2026-05-01 08:06 47.94138 2.87630 22176 ft 422 kts 157°
2026-05-01 08:07 47.88669 2.90984 22965 ft 427 kts 156°
2026-05-01 08:07 47.83135 2.94370 23785 ft 432 kts 156°
2026-05-01 08:08 47.80343 2.96075 24079 ft 436 kts 156°
2026-05-01 08:08 47.74679 2.99530 24754 ft 440 kts 156°
2026-05-01 08:09 47.69005 3.02981 25543 ft 443 kts 156°
2026-05-01 08:09 47.66147 3.04717 25895 ft 445 kts 156°
2026-05-01 08:09 47.63272 3.06461 26262 ft 447 kts 156°
2026-05-01 08:10 47.57487 3.09963 27011 ft 451 kts 156°
2026-05-01 08:10 47.51660 3.13492 27808 ft 454 kts 156°
2026-05-01 08:11 47.45812 3.17129 28498 ft 458 kts 155°
2026-05-01 08:11 47.39918 3.20816 29163 ft 462 kts 155°
2026-05-01 08:12 47.34021 3.24479 30134 ft 458 kts 155°
2026-05-01 08:12 47.31095 3.26290 30647 ft 454 kts 155°
2026-05-01 08:12 47.25286 3.29874 31411 ft 452 kts 155°
2026-05-01 08:13 47.22385 3.31661 31710 ft 452 kts 156°
2026-05-01 08:13 47.19476 3.33451 31981 ft 453 kts 156°
2026-05-01 08:13 47.13682 3.37009 32721 ft 450 kts 156°
2026-05-01 08:14 47.10795 3.38780 33035 ft 450 kts 156°
2026-05-01 08:14 47.07906 3.40549 33334 ft 450 kts 156°
2026-05-01 08:14 47.05017 3.42316 33688 ft 449 kts 156°
2026-05-01 08:14 47.02138 3.44075 34041 ft 448 kts 156°
2026-05-01 08:15 46.99265 3.45828 34351 ft 447 kts 156°
2026-05-01 08:15 46.93550 3.49310 34730 ft 449 kts 156°
2026-05-01 08:15 46.90657 3.51071 34857 ft 452 kts 157°
2026-05-01 08:16 46.87721 3.52855 34799 ft 459 kts 157°
2026-05-01 08:16 46.84770 3.54646 35007 ft 459 kts 157°
2026-05-01 08:16 46.81818 3.56435 35195 ft 460 kts 157°
2026-05-01 08:17 46.76214 3.60870 35252 ft 459 kts 144°
2026-05-01 08:17 46.71650 3.67367 35250 ft 461 kts 128°
2026-05-01 08:18 46.68630 3.75610 35253 ft 466 kts 110°
2026-05-01 08:19 46.65391 3.93941 35257 ft 468 kts 105°
2026-05-01 08:19 46.63858 4.03148 35255 ft 468 kts 106°
2026-05-01 08:20 46.62280 4.12300 35074 ft 463 kts 106°
2026-05-01 08:20 46.61488 4.16835 34538 ft 461 kts 107°
2026-05-01 08:20 46.60701 4.21329 34170 ft 456 kts 107°
2026-05-01 08:21 46.59123 4.30286 34258 ft 460 kts 107°
2026-05-01 08:21 46.58327 4.34790 34121 ft 458 kts 107°
2026-05-01 08:21 46.57537 4.39260 33567 ft 455 kts 107°
2026-05-01 08:21 46.56747 4.43718 33290 ft 457 kts 107°
2026-05-01 08:22 46.55949 4.48205 33253 ft 460 kts 107°
2026-05-01 08:22 46.54346 4.57200 33256 ft 460 kts 107°
2026-05-01 08:23 46.52738 4.66177 33257 ft 459 kts 107°
2026-05-01 08:23 46.51122 4.75155 33257 ft 460 kts 107°
2026-05-01 08:24 46.49499 4.84128 33244 ft 460 kts 107°
2026-05-01 08:24 46.47875 4.93055 33258 ft 462 kts 107°
2026-05-01 08:25 46.46227 5.02077 33265 ft 463 kts 107°
2026-05-01 08:25 46.44571 5.11099 33263 ft 463 kts 107°
2026-05-01 08:26 46.42911 5.20129 33261 ft 464 kts 107°
2026-05-01 08:26 46.41238 5.29164 33265 ft 466 kts 107°
2026-05-01 08:27 46.39552 5.38233 33268 ft 467 kts 107°
2026-05-01 08:27 46.37863 5.47312 33272 ft 467 kts 107°
2026-05-01 08:28 46.36174 5.56382 33281 ft 467 kts 107°
2026-05-01 08:28 46.34476 5.65448 33292 ft 467 kts 106°
2026-05-01 08:29 46.32763 5.74554 33294 ft 469 kts 106°
2026-05-01 08:29 46.31041 5.83660 33306 ft 470 kts 107°
2026-05-01 08:30 46.29311 5.92767 33318 ft 470 kts 107°
2026-05-01 08:30 46.27571 6.01865 33309 ft 470 kts 106°
2026-05-01 08:31 46.25818 6.10965 33308 ft 470 kts 107°
2026-05-01 08:31 46.23572 6.19832 33327 ft 470 kts 111°
2026-05-01 08:32 46.21157 6.28601 33316 ft 470 kts 112°
2026-05-01 08:32 46.18707 6.37352 33306 ft 470 kts 112°
2026-05-01 08:33 46.16250 6.46110 33317 ft 473 kts 112°
2026-05-01 08:33 46.13799 6.54842 33292 ft 473 kts 112°
2026-05-01 08:34 46.11327 6.63628 33305 ft 473 kts 112°
2026-05-01 08:34 46.10491 6.66593 33305 ft 473 kts 112°